Location: NJAA Observatory
(40.6819°N, 74.8979°W)
Time: 06:19:41
(UTC-04:00)

Cosmos 2263 Rocket - Visible Passes

Search period start: 28 May 2017 00:00
Search period end: 07 June 2017 00:00
Orbit: 825 x 847 km, 71.0° (Epoch: 27 May)

Date Brightness Start Highest point End Pass type
(mag) Time Alt. Az. Time Alt. Az. Time Alt. Az.
28 May 4.5 03:41:34 10° SE 03:45:04 17° E 03:48:34 10° ENE visible
29 May 4.5 03:25:14 10° SE 03:28:24 16° E 03:31:36 10° ENE visible
30 May 4.5 03:08:57 10° SE 03:11:45 14° E 03:14:34 10° ENE visible
30 May 2.2 04:49:24 10° SSW 04:54:57 74° WNW 05:00:32 10° NNE visible
31 May 4.5 02:52:45 10° ESE 02:55:07 13° E 02:57:27 10° ENE visible
31 May 2.2 04:32:40 10° SSW 04:38:14 80° WNW 04:43:49 10° NNE visible
01 Jun 4.6 02:36:42 10° ESE 02:38:27 11° E 02:40:13 10° ENE visible
01 Jun 2.2 04:16:37 14° SSW 04:21:31 87° WNW 04:27:06 10° NNE visible
02 Jun 4.7 02:21:08 10° ESE 02:21:49 10° E 02:22:29 10° E visible
02 Jun 2.2 04:00:33 18° SSW 04:04:48 87° ESE 04:10:24 10° NNE visible
03 Jun 2.2 03:44:27 22° SSW 03:48:05 80° ESE 03:53:41 10° NNE visible
04 Jun 2.2 03:28:18 27° S 03:31:23 73° ESE 03:36:57 10° NNE visible
05 Jun 2.3 03:12:07 32° S 03:14:41 67° ESE 03:20:13 10° NNE visible
05 Jun 3.9 04:55:14 10° W 04:59:07 19° NW 05:03:03 10° N visible
06 Jun 2.4 02:55:53 37° S 02:57:59 62° ESE 03:03:29 10° NNE visible
06 Jun 3.8 04:38:17 10° W 04:42:21 20° NW 04:46:27 10° N visible
